owner,sensor,date,latitude,longitude,vertical_datum,sea_water_practical_salinity,qcFlag 
TABS,ioos:station:wmo:42050:1,2012-03-01T00:00:00Z,28.8425,-94.2433,2.0,34.6234,11111222 
TABS,ioos:station:wmo:42050:1,2012-03-01T00:30:00Z,28.8425,-94.2433,2.0,34.5558,11111222 
TABS,ioos:station:wmo:42050:1,2012-03-01T01:00:00Z,28.8425,-94.2433,2.0,34.5197,11111222 
TABS,ioos:station:wmo:42050:1,2012-03-01T01:30:00Z,28.8425,-94.2433,2.0,34.5071,11111222 
TABS,ioos:station:wmo:42050:1,2012-03-01T02:00:00Z,28.8425,-94.2433,2.0,34.4863,11111222 
TABS,ioos:station:wmo:42050:1,2012-03-01T02:30:00Z,28.8425,-94.2433,2.0,34.4692,11111222 
TABS,ioos:station:wmo:42050:1,2012-03-01T03:00:00Z,28.8425,-94.2433,2.0,34.4475,11111222 
TABS,ioos:station:wmo:42050:1,2012-03-01T03:30:00Z,28.8425,-94.2433,2.0,34.4274,11111222 
TABS,ioos:station:wmo:42050:1,2012-03-01T04:00:00Z,28.8425,-94.2433,2.0,34.4473,11111222 
TABS,ioos:station:wmo:42050:1,2012-03-01T04:30:00Z,28.8425,-94.2433,2.0,34.4101,11111222 
TABS,ioos:station:wmo:42050:1,2012-03-01T05:00:00Z,28.8425,-94.2433,2.0,34.3939,11111222 
TABS,ioos:station:wmo:42050:1,2012-03-01T05:30:00Z,28.8425,-94.2433,2.0,34.3774,11111222 
TABS,ioos:station:wmo:42050:1,2012-03-01T06:00:00Z,28.8425,-94.2433,2.0,34.3672,11111222 
TABS,ioos:station:wmo:42050:1,2012-03-01T06:30:00Z,28.8425,-94.2433,2.0,34.3626,11111222 
TABS,ioos:station:wmo:42050:1,2012-03-01T07:00:00Z,28.8425,-94.2433,2.0,34.3318,11111222 
TABS,ioos:station:wmo:42050:1,2012-03-01T07:30:00Z,28.8425,-94.2433,2.0,34.3062,11111222 
TABS,ioos:station:wmo:42050:1,2012-03-01T08:00:00Z,28.8425,-94.2433,2.0,34.303,11111222 
TABS,ioos:station:wmo:42050:1,2012-03-01T08:30:00Z,28.8425,-94.2433,2.0,34.2975,11111222 
TABS,ioos:station:wmo:42050:1,2012-03-01T09:00:00Z,28.8425,-94.2433,2.0,34.3037,11111222 
TABS,ioos:station:wmo:42050:1,2012-03-01T09:30:00Z,28.8425,-94.2433,2.0,34.3186,11111222 
TABS,ioos:station:wmo:42050:1,2012-03-01T10:00:00Z,28.8425,-94.2433,2.0,34.3297,11111222 
TABS,ioos:station:wmo:42050:1,2012-03-01T10:30:00Z,28.8425,-94.2433,2.0,34.344,11111222 
TABS,ioos:station:wmo:42050:1,2012-03-01T11:00:00Z,28.8425,-94.2433,2.0,34.3619,11111222 
TABS,ioos:station:wmo:42050:1,2012-03-01T11:30:00Z,28.8425,-94.2433,2.0,34.3557,11111222 
TABS,ioos:station:wmo:42050:1,2012-03-01T12:00:00Z,28.8425,-94.2433,2.0,34.3819,11111222 
TABS,ioos:station:wmo:42050:1,2012-03-01T12:30:00Z,28.8425,-94.2433,2.0,34.4067,11111222 
TABS,ioos:station:wmo:42050:1,2012-03-01T13:00:00Z,28.8425,-94.2433,2.0,34.4001,11111222 
TABS,ioos:station:wmo:42050:1,2012-03-01T13:30:00Z,28.8425,-94.2433,2.0,34.4342,11111222 
TABS,ioos:station:wmo:42050:1,2012-03-01T14:00:00Z,28.8425,-94.2433,2.0,34.4208,11111222 
TABS,ioos:station:wmo:42050:1,2012-03-01T14:30:00Z,28.8425,-94.2433,2.0,34.4001,11111222 
TABS,ioos:station:wmo:42050:1,2012-03-01T15:00:00Z,28.8425,-94.2433,2.0,34.4394,11111222 
TABS,ioos:station:wmo:42050:1,2012-03-01T15:30:00Z,28.8425,-94.2433,2.0,34.5152,11111222 
TABS,ioos:station:wmo:42050:1,2012-03-01T16:00:00Z,28.8425,-94.2433,2.0,34.5349,11111222 
TABS,ioos:station:wmo:42050:1,2012-03-01T16:30:00Z,28.8425,-94.2433,2.0,34.5262,11111222 
TABS,ioos:station:wmo:42050:1,2012-03-01T17:00:00Z,28.8425,-94.2433,2.0,34.413,11111222 
TABS,ioos:station:wmo:42050:1,2012-03-01T17:30:00Z,28.8425,-94.2433,2.0,34.3548,11111222 
TABS,ioos:station:wmo:42050:1,2012-03-01T18:00:00Z,28.8425,-94.2433,2.0,34.3357,11111222 
TABS,ioos:station:wmo:42050:1,2012-03-01T18:30:00Z,28.8425,-94.2433,2.0,34.4103,11111222 
TABS,ioos:station:wmo:42050:1,2012-03-01T19:00:00Z,28.8425,-94.2433,2.0,34.5329,11111222 
TABS,ioos:station:wmo:42050:1,2012-03-01T19:30:00Z,28.8425,-94.2433,2.0,34.6055,11111222 
TABS,ioos:station:wmo:42050:1,2012-03-01T20:00:00Z,28.8425,-94.2433,2.0,34.5777,11111222 
TABS,ioos:station:wmo:42050:1,2012-03-01T20:30:00Z,28.8425,-94.2433,2.0,34.5741,11111222 
TABS,ioos:station:wmo:42050:1,2012-03-01T21:00:00Z,28.8425,-94.2433,2.0,34.547,11111222 
TABS,ioos:station:wmo:42050:1,2012-03-01T21:30:00Z,28.8425,-94.2433,2.0,34.5195,11111222 
TABS,ioos:station:wmo:42050:1,2012-03-01T22:00:00Z,28.8425,-94.2433,2.0,34.5499,11111222 
TABS,ioos:station:wmo:42050:1,2012-03-01T22:30:00Z,28.8425,-94.2433,2.0,34.5915,11111222 
TABS,ioos:station:wmo:42050:1,2012-03-01T23:00:00Z,28.8425,-94.2433,2.0,34.5441,11111222 
TABS,ioos:station:wmo:42050:1,2012-03-01T23:30:00Z,28.8425,-94.2433,2.0,34.5463,11111222 
TABS,ioos:station:wmo:42050:1,2012-03-02T00:00:00Z,28.8425,-94.2433,2.0,34.6407,11111222 
TABS,ioos:station:wmo:42050:1,2012-03-02T00:30:00Z,28.8425,-94.2433,2.0,34.6507,11111222 
TABS,ioos:station:wmo:42050:1,2012-03-02T01:00:00Z,28.8425,-94.2433,2.0,34.6515,11111222 
TABS,ioos:station:wmo:42050:1,2012-03-02T01:30:00Z,28.8425,-94.2433,2.0,34.6585,11111222 
TABS,ioos:station:wmo:42050:1,2012-03-02T02:00:00Z,28.8425,-94.2433,2.0,34.6242,11111222 
TABS,ioos:station:wmo:42050:1,2012-03-02T02:30:00Z,28.8425,-94.2433,2.0,34.6218,11111222 
TABS,ioos:station:wmo:42050:1,2012-03-02T03:00:00Z,28.8425,-94.2433,2.0,34.6556,11111222 
TABS,ioos:station:wmo:42050:1,2012-03-02T03:30:00Z,28.8425,-94.2433,2.0,34.6523,11111222 
TABS,ioos:station:wmo:42050:1,2012-03-02T04:00:00Z,28.8425,-94.2433,2.0,34.6481,11111222 
TABS,ioos:station:wmo:42050:1,2012-03-02T04:30:00Z,28.8425,-94.2433,2.0,34.6592,11111222 
TABS,ioos:station:wmo:42050:1,2012-03-02T05:00:00Z,28.8425,-94.2433,2.0,34.6588,11111222 
TABS,ioos:station:wmo:42050:1,2012-03-02T05:30:00Z,28.8425,-94.2433,2.0,34.6392,11111222 
TABS,ioos:station:wmo:42050:1,2012-03-02T06:00:00Z,28.8425,-94.2433,2.0,34.6792,11111222 
TABS,ioos:station:wmo:42050:1,2012-03-02T06:30:00Z,28.8425,-94.2433,2.0,34.683,11111222 
TABS,ioos:station:wmo:42050:1,2012-03-02T07:00:00Z,28.8425,-94.2433,2.0,34.732,11111222 
TABS,ioos:station:wmo:42050:1,2012-03-02T07:30:00Z,28.8425,-94.2433,2.0,34.7204,11111222 
TABS,ioos:station:wmo:42050:1,2012-03-02T08:00:00Z,28.8425,-94.2433,2.0,34.6977,11111222 
TABS,ioos:station:wmo:42050:1,2012-03-02T08:30:00Z,28.8425,-94.2433,2.0,34.722,11111222 
TABS,ioos:station:wmo:42050:1,2012-03-02T09:00:00Z,28.8425,-94.2433,2.0,34.6923,11111222 
TABS,ioos:station:wmo:42050:1,2012-03-02T09:30:00Z,28.8425,-94.2433,2.0,34.6744,11111222 
TABS,ioos:station:wmo:42050:1,2012-03-02T10:00:00Z,28.8425,-94.2433,2.0,34.6736,11111222 
TABS,ioos:station:wmo:42050:1,2012-03-02T10:30:00Z,28.8425,-94.2433,2.0,34.6789,11111222 
TABS,ioos:station:wmo:42050:1,2012-03-02T11:00:00Z,28.8425,-94.2433,2.0,34.6751,11111222 
TABS,ioos:station:wmo:42050:1,2012-03-02T11:30:00Z,28.8425,-94.2433,2.0,34.7047,11111222 
TABS,ioos:station:wmo:42050:1,2012-03-02T12:00:00Z,28.8425,-94.2433,2.0,34.7768,11111222 
TABS,ioos:station:wmo:42050:1,2012-03-02T12:30:00Z,28.8425,-94.2433,2.0,34.7978,11111222 
TABS,ioos:station:wmo:42050:1,2012-03-02T13:00:00Z,28.8425,-94.2433,2.0,34.8101,11111222 
TABS,ioos:station:wmo:42050:1,2012-03-02T13:30:00Z,28.8425,-94.2433,2.0,34.8268,11111222 
TABS,ioos:station:wmo:42050:1,2012-03-02T14:00:00Z,28.8425,-94.2433,2.0,34.8435,11111222 
TABS,ioos:station:wmo:42050:1,2012-03-02T14:30:00Z,28.8425,-94.2433,2.0,34.8592,11111222 
TABS,ioos:station:wmo:42050:1,2012-03-02T15:00:00Z,28.8425,-94.2433,2.0,34.8547,11111222 
TABS,ioos:station:wmo:42050:1,2012-03-02T15:30:00Z,28.8425,-94.2433,2.0,34.8727,11111222 
TABS,ioos:station:wmo:42050:1,2012-03-02T16:00:00Z,28.8425,-94.2433,2.0,34.8573,11111222 
TABS,ioos:station:wmo:42050:1,2012-03-02T16:30:00Z,28.8425,-94.2433,2.0,34.8859,11111222 
TABS,ioos:station:wmo:42050:1,2012-03-02T17:00:00Z,28.8425,-94.2433,2.0,34.9176,11111222 
TABS,ioos:station:wmo:42050:1,2012-03-02T17:30:00Z,28.8425,-94.2433,2.0,35.1142,11111222 
TABS,ioos:station:wmo:42050:1,2012-03-02T18:00:00Z,28.8425,-94.2433,2.0,35.0817,11111222 
TABS,ioos:station:wmo:42050:1,2012-03-02T18:30:00Z,28.8425,-94.2433,2.0,34.8576,11111222 
TABS,ioos:station:wmo:42050:1,2012-03-02T19:00:00Z,28.8425,-94.2433,2.0,34.8314,11111222 
TABS,ioos:station:wmo:42050:1,2012-03-02T19:30:00Z,28.8425,-94.2433,2.0,34.8085,11111222 
TABS,ioos:station:wmo:42050:1,2012-03-02T20:00:00Z,28.8425,-94.2433,2.0,34.725,11111222 
TABS,ioos:station:wmo:42050:1,2012-03-02T20:30:00Z,28.8425,-94.2433,2.0,34.6896,11111222 
TABS,ioos:station:wmo:42050:1,2012-03-02T21:00:00Z,28.8425,-94.2433,2.0,34.7532,11111222 
TABS,ioos:station:wmo:42050:1,2012-03-02T21:30:00Z,28.8425,-94.2433,2.0,34.5389,11111222 
TABS,ioos:station:wmo:42050:1,2012-03-02T22:00:00Z,28.8425,-94.2433,2.0,34.5183,11111222 
TABS,ioos:station:wmo:42050:1,2012-03-02T22:30:00Z,28.8425,-94.2433,2.0,34.5443,11111222 
TABS,ioos:station:wmo:42050:1,2012-03-02T23:00:00Z,28.8425,-94.2433,2.0,34.5085,11111222 
TABS,ioos:station:wmo:42050:1,2012-03-02T23:30:00Z,28.8425,-94.2433,2.0,34.5226,11111222 
TABS,ioos:station:wmo:42050:1,2012-03-03T00:00:00Z,28.8425,-94.2433,2.0,34.5014,11111222 
TABS,ioos:station:wmo:42050:1,2012-03-03T00:30:00Z,28.8425,-94.2433,2.0,34.4932,11111222 
TABS,ioos:station:wmo:42050:1,2012-03-03T01:00:00Z,28.8425,-94.2433,2.0,34.4824,11111222 
TABS,ioos:station:wmo:42050:1,2012-03-03T01:30:00Z,28.8425,-94.2433,2.0,34.4701,11111222 
TABS,ioos:station:wmo:42050:1,2012-03-03T02:00:00Z,28.8425,-94.2433,2.0,34.448,11111222 
TABS,ioos:station:wmo:42050:1,2012-03-03T02:30:00Z,28.8425,-94.2433,2.0,34.4402,11111222 
TABS,ioos:station:wmo:42050:1,2012-03-03T03:00:00Z,28.8425,-94.2433,2.0,34.4333,11111222 
TABS,ioos:station:wmo:42050:1,2012-03-03T03:30:00Z,28.8425,-94.2433,2.0,34.4059,11111222 
TABS,ioos:station:wmo:42050:1,2012-03-03T04:00:00Z,28.8425,-94.2433,2.0,34.4316,11111222 
TABS,ioos:station:wmo:42050:1,2012-03-03T04:30:00Z,28.8425,-94.2433,2.0,34.4102,11111222 
TABS,ioos:station:wmo:42050:1,2012-03-03T05:00:00Z,28.8425,-94.2433,2.0,34.3969,11111222 
TABS,ioos:station:wmo:42050:1,2012-03-03T05:30:00Z,28.8425,-94.2433,2.0,34.3902,11111222 
TABS,ioos:station:wmo:42050:1,2012-03-03T06:00:00Z,28.8425,-94.2433,2.0,34.4021,11111222 
TABS,ioos:station:wmo:42050:1,2012-03-03T06:30:00Z,28.8425,-94.2433,2.0,34.4087,11111222 
TABS,ioos:station:wmo:42050:1,2012-03-03T07:00:00Z,28.8425,-94.2433,2.0,34.4293,11111222 
TABS,ioos:station:wmo:42050:1,2012-03-03T07:30:00Z,28.8425,-94.2433,2.0,34.3835,11111222 
TABS,ioos:station:wmo:42050:1,2012-03-03T08:00:00Z,28.8425,-94.2433,2.0,34.3756,11111222 
TABS,ioos:station:wmo:42050:1,2012-03-03T08:30:00Z,28.8425,-94.2433,2.0,34.3543,11111222 
TABS,ioos:station:wmo:42050:1,2012-03-03T09:00:00Z,28.8425,-94.2433,2.0,34.3657,11111222 
TABS,ioos:station:wmo:42050:1,2012-03-03T09:30:00Z,28.8425,-94.2433,2.0,34.3849,11111222 
TABS,ioos:station:wmo:42050:1,2012-03-03T10:00:00Z,28.8425,-94.2433,2.0,34.4589,11111222 
TABS,ioos:station:wmo:42050:1,2012-03-03T10:30:00Z,28.8425,-94.2433,2.0,34.4983,11111222 
TABS,ioos:station:wmo:42050:1,2012-03-03T11:00:00Z,28.8425,-94.2433,2.0,34.5584,11111222 
TABS,ioos:station:wmo:42050:1,2012-03-03T11:30:00Z,28.8425,-94.2433,2.0,34.6336,11111222 
TABS,ioos:station:wmo:42050:1,2012-03-03T12:00:00Z,28.8425,-94.2433,2.0,34.6565,11111222 
TABS,ioos:station:wmo:42050:1,2012-03-03T12:30:00Z,28.8425,-94.2433,2.0,34.7141,11111222 
TABS,ioos:station:wmo:42050:1,2012-03-03T13:00:00Z,28.8425,-94.2433,2.0,34.7466,11111222 
TABS,ioos:station:wmo:42050:1,2012-03-03T13:30:00Z,28.8425,-94.2433,2.0,34.6476,11111222 
TABS,ioos:station:wmo:42050:1,2012-03-03T14:00:00Z,28.8425,-94.2433,2.0,34.7285,11111222 
TABS,ioos:station:wmo:42050:1,2012-03-03T14:30:00Z,28.8425,-94.2433,2.0,34.8801,11111222 
TABS,ioos:station:wmo:42050:1,2012-03-03T15:00:00Z,28.8425,-94.2433,2.0,35.0205,11111222 
TABS,ioos:station:wmo:42050:1,2012-03-03T15:30:00Z,28.8425,-94.2433,2.0,34.9945,11111222 
TABS,ioos:station:wmo:42050:1,2012-03-03T16:00:00Z,28.8425,-94.2433,2.0,35.0518,11111222 
TABS,ioos:station:wmo:42050:1,2012-03-03T16:30:00Z,28.8425,-94.2433,2.0,35.0637,11111222 
TABS,ioos:station:wmo:42050:1,2012-03-03T17:00:00Z,28.8425,-94.2433,2.0,35.0767,11111222 
TABS,ioos:station:wmo:42050:1,2012-03-03T17:30:00Z,28.8425,-94.2433,2.0,35.0871,11111222 
TABS,ioos:station:wmo:42050:1,2012-03-03T18:00:00Z,28.8425,-94.2433,2.0,35.099,11111222 
TABS,ioos:station:wmo:42050:1,2012-03-03T18:30:00Z,28.8425,-94.2433,2.0,35.108,11111222 
TABS,ioos:station:wmo:42050:1,2012-03-03T19:00:00Z,28.8425,-94.2433,2.0,35.1139,11111222 
TABS,ioos:station:wmo:42050:1,2012-03-03T19:30:00Z,28.8425,-94.2433,2.0,35.0327,11111222 
TABS,ioos:station:wmo:42050:1,2012-03-03T20:00:00Z,28.8425,-94.2433,2.0,35.0137,11111222 
TABS,ioos:station:wmo:42050:1,2012-03-03T20:30:00Z,28.8425,-94.2433,2.0,34.953,11111222 
TABS,ioos:station:wmo:42050:1,2012-03-03T21:00:00Z,28.8425,-94.2433,2.0,34.8161,11111222 
TABS,ioos:station:wmo:42050:1,2012-03-03T21:30:00Z,28.8425,-94.2433,2.0,34.7735,11111222 
TABS,ioos:station:wmo:42050:1,2012-03-03T22:00:00Z,28.8425,-94.2433,2.0,34.7433,11111222 
TABS,ioos:station:wmo:42050:1,2012-03-03T22:30:00Z,28.8425,-94.2433,2.0,34.7581,11111222 
TABS,ioos:station:wmo:42050:1,2012-03-03T23:00:00Z,28.8425,-94.2433,2.0,34.7632,11111222 
TABS,ioos:station:wmo:42050:1,2012-03-03T23:30:00Z,28.8425,-94.2433,2.0,34.7504,11111222 
TABS,ioos:station:wmo:42050:1,2012-03-04T00:00:00Z,28.8425,-94.2433,2.0,34.7287,11111222 
TABS,ioos:station:wmo:42050:1,2012-03-04T00:30:00Z,28.8425,-94.2433,2.0,34.7403,11111222 
TABS,ioos:station:wmo:42050:1,2012-03-04T01:00:00Z,28.8425,-94.2433,2.0,34.7204,11111222 
TABS,ioos:station:wmo:42050:1,2012-03-04T01:30:00Z,28.8425,-94.2433,2.0,34.6956,11111222 
TABS,ioos:station:wmo:42050:1,2012-03-04T02:00:00Z,28.8425,-94.2433,2.0,34.6822,11111222 
TABS,ioos:station:wmo:42050:1,2012-03-04T02:30:00Z,28.8425,-94.2433,2.0,34.6408,11111222 
TABS,ioos:station:wmo:42050:1,2012-03-04T03:00:00Z,28.8425,-94.2433,2.0,34.6365,11111222 
TABS,ioos:station:wmo:42050:1,2012-03-04T03:30:00Z,28.8425,-94.2433,2.0,34.6268,11111222 
TABS,ioos:station:wmo:42050:1,2012-03-04T04:00:00Z,28.8425,-94.2433,2.0,34.6161,11111222 
TABS,ioos:station:wmo:42050:1,2012-03-04T04:30:00Z,28.8425,-94.2433,2.0,34.5818,11111222 
TABS,ioos:station:wmo:42050:1,2012-03-04T05:00:00Z,28.8425,-94.2433,2.0,34.5912,11111222 
TABS,ioos:station:wmo:42050:1,2012-03-04T05:30:00Z,28.8425,-94.2433,2.0,34.585,11111222 
TABS,ioos:station:wmo:42050:1,2012-03-04T06:00:00Z,28.8425,-94.2433,2.0,34.5678,11111222 
TABS,ioos:station:wmo:42050:1,2012-03-04T06:30:00Z,28.8425,-94.2433,2.0,34.5659,11111222 
TABS,ioos:station:wmo:42050:1,2012-03-04T07:00:00Z,28.8425,-94.2433,2.0,34.5257,11111222 
TABS,ioos:station:wmo:42050:1,2012-03-04T07:30:00Z,28.8425,-94.2433,2.0,34.4232,11111222 
TABS,ioos:station:wmo:42050:1,2012-03-04T08:00:00Z,28.8425,-94.2433,2.0,34.3802,11111222 
TABS,ioos:station:wmo:42050:1,2012-03-04T08:30:00Z,28.8425,-94.2433,2.0,34.4012,11111222 
TABS,ioos:station:wmo:42050:1,2012-03-04T09:00:00Z,28.8425,-94.2433,2.0,34.4121,11111222 
TABS,ioos:station:wmo:42050:1,2012-03-04T09:30:00Z,28.8425,-94.2433,2.0,34.421,11111222 
TABS,ioos:station:wmo:42050:1,2012-03-04T10:00:00Z,28.8425,-94.2433,2.0,34.4142,11111222 
TABS,ioos:station:wmo:42050:1,2012-03-04T10:30:00Z,28.8425,-94.2433,2.0,34.3996,11111222 
TABS,ioos:station:wmo:42050:1,2012-03-04T11:00:00Z,28.8425,-94.2433,2.0,34.3735,11111222 
TABS,ioos:station:wmo:42050:1,2012-03-04T11:30:00Z,28.8425,-94.2433,2.0,34.3715,11111222 
TABS,ioos:station:wmo:42050:1,2012-03-04T12:00:00Z,28.8425,-94.2433,2.0,34.355,11111222 
TABS,ioos:station:wmo:42050:1,2012-03-04T12:30:00Z,28.8425,-94.2433,2.0,34.352,11111222 
TABS,ioos:station:wmo:42050:1,2012-03-04T13:00:00Z,28.8425,-94.2433,2.0,34.3608,11111222 
TABS,ioos:station:wmo:42050:1,2012-03-04T13:30:00Z,28.8425,-94.2433,2.0,34.3105,11111222 
TABS,ioos:station:wmo:42050:1,2012-03-04T14:00:00Z,28.8425,-94.2433,2.0,34.286,11111222 
TABS,ioos:station:wmo:42050:1,2012-03-04T14:30:00Z,28.8425,-94.2433,2.0,34.1267,11111222 
TABS,ioos:station:wmo:42050:1,2012-03-04T15:00:00Z,28.8425,-94.2433,2.0,34.0941,11111222 
TABS,ioos:station:wmo:42050:1,2012-03-04T15:30:00Z,28.8425,-94.2433,2.0,34.1144,11111222 
TABS,ioos:station:wmo:42050:1,2012-03-04T16:00:00Z,28.8425,-94.2433,2.0,34.164,11111222 
TABS,ioos:station:wmo:42050:1,2012-03-04T16:30:00Z,28.8425,-94.2433,2.0,34.187,11111222 
TABS,ioos:station:wmo:42050:1,2012-03-04T17:00:00Z,28.8425,-94.2433,2.0,34.2266,11111222 
TABS,ioos:station:wmo:42050:1,2012-03-04T17:30:00Z,28.8425,-94.2433,2.0,34.2479,11111222 
TABS,ioos:station:wmo:42050:1,2012-03-04T18:00:00Z,28.8425,-94.2433,2.0,34.2631,11111222 
TABS,ioos:station:wmo:42050:1,2012-03-04T18:30:00Z,28.8425,-94.2433,2.0,34.2742,11111222 
TABS,ioos:station:wmo:42050:1,2012-03-04T19:00:00Z,28.8425,-94.2433,2.0,34.2588,11111222 
TABS,ioos:station:wmo:42050:1,2012-03-04T19:30:00Z,28.8425,-94.2433,2.0,34.2688,11111222 
TABS,ioos:station:wmo:42050:1,2012-03-04T20:00:00Z,28.8425,-94.2433,2.0,34.2679,11111222 
TABS,ioos:station:wmo:42050:1,2012-03-04T20:30:00Z,28.8425,-94.2433,2.0,34.2619,11111222 
TABS,ioos:station:wmo:42050:1,2012-03-04T21:00:00Z,28.8425,-94.2433,2.0,34.2251,11111222 
TABS,ioos:station:wmo:42050:1,2012-03-04T21:30:00Z,28.8425,-94.2433,2.0,34.2012,11111222 
TABS,ioos:station:wmo:42050:1,2012-03-04T22:00:00Z,28.8425,-94.2433,2.0,34.1439,11111222 
TABS,ioos:station:wmo:42050:1,2012-03-04T22:30:00Z,28.8425,-94.2433,2.0,34.0298,11111222 
TABS,ioos:station:wmo:42050:1,2012-03-04T23:00:00Z,28.8425,-94.2433,2.0,34.0077,11111222 
TABS,ioos:station:wmo:42050:1,2012-03-04T23:30:00Z,28.8425,-94.2433,2.0,34.0427,11111222 
TABS,ioos:station:wmo:42050:1,2012-03-05T00:00:00Z,28.8425,-94.2433,2.0,34.0598,11111222 
TABS,ioos:station:wmo:42050:1,2012-03-05T00:30:00Z,28.8425,-94.2433,2.0,34.0631,11111222 
TABS,ioos:station:wmo:42050:1,2012-03-05T01:00:00Z,28.8425,-94.2433,2.0,34.0994,11111222 
TABS,ioos:station:wmo:42050:1,2012-03-05T01:30:00Z,28.8425,-94.2433,2.0,34.1049,11111222 
TABS,ioos:station:wmo:42050:1,2012-03-05T02:00:00Z,28.8425,-94.2433,2.0,34.0602,11111222 
TABS,ioos:station:wmo:42050:1,2012-03-05T02:30:00Z,28.8425,-94.2433,2.0,34.0531,11111222 
TABS,ioos:station:wmo:42050:1,2012-03-05T03:00:00Z,28.8425,-94.2433,2.0,34.0379,11111222 
TABS,ioos:station:wmo:42050:1,2012-03-05T03:30:00Z,28.8425,-94.2433,2.0,34.0316,11111222 
TABS,ioos:station:wmo:42050:1,2012-03-05T04:00:00Z,28.8425,-94.2433,2.0,34.0419,11111222 
TABS,ioos:station:wmo:42050:1,2012-03-05T04:30:00Z,28.8425,-94.2433,2.0,34.0381,11111222 
TABS,ioos:station:wmo:42050:1,2012-03-05T05:00:00Z,28.8425,-94.2433,2.0,34.0392,11111222 
TABS,ioos:station:wmo:42050:1,2012-03-05T05:30:00Z,28.8425,-94.2433,2.0,34.0304,11111222 
TABS,ioos:station:wmo:42050:1,2012-03-05T06:00:00Z,28.8425,-94.2433,2.0,34.0195,11111222 
TABS,ioos:station:wmo:42050:1,2012-03-05T06:30:00Z,28.8425,-94.2433,2.0,34.0133,11111222 
TABS,ioos:station:wmo:42050:1,2012-03-05T07:00:00Z,28.8425,-94.2433,2.0,34.0141,11111222 
TABS,ioos:station:wmo:42050:1,2012-03-05T07:30:00Z,28.8425,-94.2433,2.0,34.0141,11111222 
TABS,ioos:station:wmo:42050:1,2012-03-05T08:00:00Z,28.8425,-94.2433,2.0,34.0055,11111222 
TABS,ioos:station:wmo:42050:1,2012-03-05T08:30:00Z,28.8425,-94.2433,2.0,34.0053,11111222 
TABS,ioos:station:wmo:42050:1,2012-03-05T09:00:00Z,28.8425,-94.2433,2.0,34.004,11111222 
TABS,ioos:station:wmo:42050:1,2012-03-05T09:30:00Z,28.8425,-94.2433,2.0,33.9939,11111222 
TABS,ioos:station:wmo:42050:1,2012-03-05T10:00:00Z,28.8425,-94.2433,2.0,33.9929,11111222 
TABS,ioos:station:wmo:42050:1,2012-03-05T10:30:00Z,28.8425,-94.2433,2.0,33.9938,11111222 
TABS,ioos:station:wmo:42050:1,2012-03-05T11:00:00Z,28.8425,-94.2433,2.0,33.9946,11111222 
TABS,ioos:station:wmo:42050:1,2012-03-05T11:30:00Z,28.8425,-94.2433,2.0,33.9938,11111222 
TABS,ioos:station:wmo:42050:1,2012-03-05T12:00:00Z,28.8425,-94.2433,2.0,33.9865,11111222 
TABS,ioos:station:wmo:42050:1,2012-03-05T12:30:00Z,28.8425,-94.2433,2.0,33.9874,11111222 
TABS,ioos:station:wmo:42050:1,2012-03-05T13:00:00Z,28.8425,-94.2433,2.0,33.9891,11111222 
TABS,ioos:station:wmo:42050:1,2012-03-05T13:30:00Z,28.8425,-94.2433,2.0,33.987,11111222 
TABS,ioos:station:wmo:42050:1,2012-03-05T14:00:00Z,28.8425,-94.2433,2.0,33.9871,11111222 
TABS,ioos:station:wmo:42050:1,2012-03-05T14:30:00Z,28.8425,-94.2433,2.0,33.9789,11111222 
TABS,ioos:station:wmo:42050:1,2012-03-05T15:00:00Z,28.8425,-94.2433,2.0,33.9789,11111222 
TABS,ioos:station:wmo:42050:1,2012-03-05T15:30:00Z,28.8425,-94.2433,2.0,33.9788,11111222 
TABS,ioos:station:wmo:42050:1,2012-03-05T16:00:00Z,28.8425,-94.2433,2.0,33.9713,11111222 
TABS,ioos:station:wmo:42050:1,2012-03-05T16:30:00Z,28.8425,-94.2433,2.0,33.9753,11111222 
TABS,ioos:station:wmo:42050:1,2012-03-05T17:00:00Z,28.8425,-94.2433,2.0,33.9727,11111222 
TABS,ioos:station:wmo:42050:1,2012-03-05T17:30:00Z,28.8425,-94.2433,2.0,33.9877,11111222 
TABS,ioos:station:wmo:42050:1,2012-03-05T18:00:00Z,28.8425,-94.2433,2.0,33.9842,11111222 
TABS,ioos:station:wmo:42050:1,2012-03-05T18:30:00Z,28.8425,-94.2433,2.0,33.9809,11111222 
TABS,ioos:station:wmo:42050:1,2012-03-05T19:00:00Z,28.8425,-94.2433,2.0,33.9885,11111222 
TABS,ioos:station:wmo:42050:1,2012-03-05T19:30:00Z,28.8425,-94.2433,2.0,34.0164,11111222 
TABS,ioos:station:wmo:42050:1,2012-03-05T20:00:00Z,28.8425,-94.2433,2.0,33.9865,11111222 
TABS,ioos:station:wmo:42050:1,2012-03-05T20:30:00Z,28.8425,-94.2433,2.0,33.995,11111222 
TABS,ioos:station:wmo:42050:1,2012-03-05T21:00:00Z,28.8425,-94.2433,2.0,34.0187,11111222 
TABS,ioos:station:wmo:42050:1,2012-03-05T21:30:00Z,28.8425,-94.2433,2.0,33.9949,11111222 
TABS,ioos:station:wmo:42050:1,2012-03-05T22:00:00Z,28.8425,-94.2433,2.0,34.0601,11111222 
TABS,ioos:station:wmo:42050:1,2012-03-05T22:30:00Z,28.8425,-94.2433,2.0,33.9902,11111222 
TABS,ioos:station:wmo:42050:1,2012-03-05T23:00:00Z,28.8425,-94.2433,2.0,33.984,11111222 
TABS,ioos:station:wmo:42050:1,2012-03-05T23:30:00Z,28.8425,-94.2433,2.0,33.9956,11111222 
TABS,ioos:station:wmo:42050:1,2012-03-06T00:00:00Z,28.8425,-94.2433,2.0,33.9815,11111222 
TABS,ioos:station:wmo:42050:1,2012-03-06T00:30:00Z,28.8425,-94.2433,2.0,33.9814,11111222 
TABS,ioos:station:wmo:42050:1,2012-03-06T01:00:00Z,28.8425,-94.2433,2.0,33.9773,11111222 
TABS,ioos:station:wmo:42050:1,2012-03-06T01:30:00Z,28.8425,-94.2433,2.0,33.9752,11111222 
TABS,ioos:station:wmo:42050:1,2012-03-06T02:00:00Z,28.8425,-94.2433,2.0,33.9794,11111222 
TABS,ioos:station:wmo:42050:1,2012-03-06T02:30:00Z,28.8425,-94.2433,2.0,33.9745,11111222 
TABS,ioos:station:wmo:42050:1,2012-03-06T03:00:00Z,28.8425,-94.2433,2.0,33.9761,11111222 
TABS,ioos:station:wmo:42050:1,2012-03-06T03:30:00Z,28.8425,-94.2433,2.0,33.9812,11111222 
TABS,ioos:station:wmo:42050:1,2012-03-06T04:00:00Z,28.8425,-94.2433,2.0,33.9837,11111222 
TABS,ioos:station:wmo:42050:1,2012-03-06T04:30:00Z,28.8425,-94.2433,2.0,33.9884,11111222 
TABS,ioos:station:wmo:42050:1,2012-03-06T05:00:00Z,28.8425,-94.2433,2.0,33.9969,11111222 
TABS,ioos:station:wmo:42050:1,2012-03-06T05:30:00Z,28.8425,-94.2433,2.0,34.0021,11111222 
TABS,ioos:station:wmo:42050:1,2012-03-06T06:00:00Z,28.8425,-94.2433,2.0,34.011,11111222 
TABS,ioos:station:wmo:42050:1,2012-03-06T06:30:00Z,28.8425,-94.2433,2.0,34.0087,11111222 
TABS,ioos:station:wmo:42050:1,2012-03-06T07:00:00Z,28.8425,-94.2433,2.0,34.0132,11111222 
TABS,ioos:station:wmo:42050:1,2012-03-06T07:30:00Z,28.8425,-94.2433,2.0,34.0113,11111222 
TABS,ioos:station:wmo:42050:1,2012-03-06T08:00:00Z,28.8425,-94.2433,2.0,34.0072,11111222 
TABS,ioos:station:wmo:42050:1,2012-03-06T08:30:00Z,28.8425,-94.2433,2.0,34.0072,11111222 
TABS,ioos:station:wmo:42050:1,2012-03-06T09:00:00Z,28.8425,-94.2433,2.0,34.0134,11111222 
TABS,ioos:station:wmo:42050:1,2012-03-06T09:30:00Z,28.8425,-94.2433,2.0,34.0128,11111222 
TABS,ioos:station:wmo:42050:1,2012-03-06T10:00:00Z,28.8425,-94.2433,2.0,34.026,11111222 
TABS,ioos:station:wmo:42050:1,2012-03-06T10:30:00Z,28.8425,-94.2433,2.0,34.0428,11111222 
TABS,ioos:station:wmo:42050:1,2012-03-06T11:00:00Z,28.8425,-94.2433,2.0,34.0279,11111222 
TABS,ioos:station:wmo:42050:1,2012-03-06T11:30:00Z,28.8425,-94.2433,2.0,34.0248,11111222 
TABS,ioos:station:wmo:42050:1,2012-03-06T12:00:00Z,28.8425,-94.2433,2.0,34.0229,11111222 